Simultaneous Nadir Overpasses (SNOs) Predictions

Prediction of SNOs between NOAA-20 and NOAA-19 Satellite Orbit:

Table of predicted SNOs for the next 14.0 days since TLE Epoch: 2/4/2023
Index Date (NOAA-20) Time (NOAA-20) Lat,Lon (NOAA-20) SZA (NOAA-20 ) Date (NOAA-19) Time (NOAA-19) Lat,Lon (NOAA-19) SZA (NOAA-19 ) Distance(km) Time Diff (sec)
1 02/06/2023 00:00:45 -75.47, -15.08 88.14 02/05/2023 23:59:35 -75.51, -16.91 87.94 51.02 70
2 02/06/2023 00:51:37 75.76, 151.31 92.20 02/06/2023 00:50:31 75.75, 151.19 92.23 3.40 66
3 02/06/2023 01:42:22 -75.80, -41.51 87.77 02/06/2023 01:41:28 -75.80, -41.41 87.76 2.87 54
4 02/06/2023 02:33:08 75.81, 125.76 92.24 02/06/2023 02:32:30 75.77, 125.76 92.22 3.97 38
5 02/06/2023 03:23:52 -75.81, -66.91 87.78 02/06/2023 03:23:27 -75.82, -66.84 87.77 2.19 25
6 02/06/2023 04:14:38 75.82, 100.37 92.22 02/06/2023 04:14:29 75.80, 100.34 92.21 2.50 9
7 02/06/2023 05:05:22 -75.81, -92.30 87.80 02/06/2023 05:05:26 -75.84, -92.26 87.78 2.84 4
8 02/06/2023 05:56:08 75.82, 74.98 92.21 02/06/2023 05:56:28 75.82, 74.91 92.20 1.89 20
9 02/06/2023 06:46:52 -75.82,-117.69 87.81 02/06/2023 06:47:25 -75.85,-117.69 87.79 4.25 33
10 02/06/2023 07:37:38 75.83, 49.59 92.19 02/06/2023 07:38:27 75.84, 49.49 92.19 2.79 49
11 02/06/2023 08:28:23 -75.87,-143.23 87.77 02/06/2023 08:29:24 -75.87,-143.11 87.80 3.39 61
12 02/06/2023 09:19:11 75.97, 23.73 92.35 02/06/2023 09:20:24 75.95, 24.39 92.25 17.93 73



Historial Predications of SNOs between NOAA-20 and NOAA-19
